Regional Weather Roundup
Issued by NWS

Home | Current Version | Previous Version | Text Only | Print | Product List | Glossary Off
Versions: 1 2 3 4 5 6 7 8 9 10 11 12 13 14 15 16 17 18 19 20 21 22 23 24 25 26 27 28 29 30 31 32 33 34 35 36 37 38 39 40 41 42 43 44 45 46 47 48 49 50

000
ASUS43 KIND 301209
RWRIN

WEATHER ROUNDUP FOR INDIANA
NATIONAL WEATHER SERVICE INDIANAPOLIS IN
800 AM EDT SAT JUL 30 2016

NOTE: "FAIR" INDICATES FEW OR NO CLOUDS BELOW 12,000 FEET WITH NO
SIGNIFICANT WEATHER AND/OR OBSTRUCTIONS TO VISIBILITY.

* - STATION DOES NOT REPORT WEATHER SUCH AS PRECIPITATION OR FOG.

+ - STATION NOT QUALITY CONTROLLED BY THE NATIONAL WEATHER SERVICE.
    USE DATA WITH CAUTION...ESPECIALLY DEWPOINT AND RELATIVE
    HUMIDITY OBSERVATIONS.

INZ001>003-010>013-019-020-301300-
NORTHWEST INDIANA

CITY           SKY/WX    TMP DP  RH WIND       PRES   REMARKS
GARY /AIRPORT/ LGT RAIN  70  70 100 CALM      29.96S
KNOX *+        CLOUDY    68  64  88 CALM      29.96R
LA PORTE +     CLOUDY   N/A N/A N/A CALM      29.97R FOG
MICHIGAN CITY+ CLOUDY    66  66 100 CALM      29.97R FOG
MONTICELLO +   FOG       67  64  87 CALM      29.94R VSB 3/4
6HR MIN TEMP:  66; 6HR MAX TEMP:  68;

RENSSELAER +   FOG       63  63 100 CALM      29.95R VSB 1/4
VALPARAISO     CLOUDY    69  67  93 CALM      29.97R
6HR MIN TEMP:  65; 6HR MAX TEMP:  69;


$$

LMZ046-743>745-301300-
SOUTHERN LAKE MICHIGAN

STATION/POSITION TIME  TEMP    WIND        PRES    WAVE
                       AIR SEA DIR/SP/G            HT
                 (UTC) (F)     (DEG/KT/KT) (MB)    (FT)
BURNS HARBOR     1106   69      60/  4/  7 1014.6R
MICHIGAN CITY    1100   68      30/  5/  5   N/A
5NW MICH CITY    1200   68 74   70/ 14/ 19   N/A     3

$$

INZ004-005-014>016-021>024-301300-
NORTH CENTRAL INDIANA

CITY           SKY/WX    TMP DP  RH WIND       PRES   REMARKS
ELKHART        CLOUDY    66  59  77 E6        29.98
GOSHEN         CLOUDY    67  61  81 NE5       29.96R
6HR MIN TEMP:  67; 6HR MAX TEMP:  70;

LOGANSPORT +   CLOUDY    68  68 100 CALM      29.96R FOG
PERU/GRISSOM   FOG       69  69 100 CALM      29.94R VSB 1/4
6HR MIN TEMP:  67; 6HR MAX TEMP:  69;

ROCHESTER +    CLOUDY    72  72 100 E3        29.95S FOG
SOUTH BEND     CLOUDY    66  61  84 NE7       29.97R
6HR MIN TEMP:  66; 6HR MAX TEMP:  68;

WARSAW +       CLOUDY    68  66  94 E6        29.95R

$$

INZ006>009-017-018-025>027-301300-
NORTHEAST INDIANA

CITY           SKY/WX    TMP DP  RH WIND       PRES   REMARKS
ANGOLA *+        N/A     64  55  72 N3        29.96R
AUBURN +       CLOUDY    66  63  88 NE3       29.96R
FORT WAYNE     CLOUDY    68  65  90 NE8       29.96R
6HR MIN TEMP:  68; 6HR MAX TEMP:  71;

HUNTINGTON +   CLOUDY    69  68  96 E3        29.95R FOG
6HR MIN TEMP:  67; 6HR MAX TEMP:  69;


$$

INZ028-029-035-036-043>045-051>053-301300-
WEST CENTRAL INDIANA

CITY           SKY/WX    TMP DP  RH WIND       PRES   REMARKS
CRAWFORDSVL +  CLOUDY    65  65 100 W3        29.95S FOG
6HR MIN TEMP:  63; 6HR MAX TEMP:  65;

GREENCASTLE +  SUNNY     68  68 100 CALM      29.96R
LAFAYETTE      FOG       67  67 100 CALM      29.94R VSB<1/4
6HR MIN TEMP:  67; 6HR MAX TEMP:  69;

TERRE HAUTE    MOSUNNY   70  67  90 CALM      29.96R
6HR MIN TEMP:  67; 6HR MAX TEMP:  71;


$$

INZ030>032-037>040-046>048-054>057-064-065-301300-
CENTRAL INDIANA

CITY           SKY/WX    TMP DP  RH WIND       PRES   REMARKS
COLUMBUS         N/A     70  70 100 CALM      29.96R FOG
FISHERS *+     CLOUDY    66  66 100 CALM      29.95  VSB<1/4
INDIANAPOLIS   MOSUNNY   70  68  93 SW5       29.95R
6HR MIN TEMP:  68; 6HR MAX TEMP:  71;

-EAGLE CREEK   SUNNY     71  68  90 CALM      29.94R
6HR MIN TEMP:  69; 6HR MAX TEMP:  72;

KOKOMO *+      CLOUDY    66  63  88 CALM      29.95R VSB 1
6HR MIN TEMP:  66; 6HR MAX TEMP:  68;

MARION +       FOG       67  67 100 S3        29.96R VSB<1/4
MT COMFORT *+  CLOUDY    64  64 100 CALM      29.96R VSB<1/4
SHELBYVILLE    FOG       69  67  93 CALM      29.94R VSB<1/4
6HR MIN TEMP:  66; 6HR MAX TEMP:  70;

ZIONSVILLE +   FOG       66  66 100 CALM      29.96R VSB<1/4
6HR MIN TEMP:  62; 6HR MAX TEMP:  66; 6HR PCP:  0.01;


$$

INZ033-034-041-042-049-050-058-059-301300-
EAST CENTRAL INDIANA

CITY           SKY/WX    TMP DP  RH WIND       PRES   REMARKS
MUNCIE         FOG       70  68  93 CALM      29.95R VSB<1/4
6HR MIN TEMP:  67; 6HR MAX TEMP:  70;


$$

INZ060-061-067>069-081>083-085>088-301300-
SOUTHWEST INDIANA

CITY           SKY/WX    TMP DP  RH WIND       PRES   REMARKS
EVANSVILLE     MOSUNNY   73  71  93 CALM      29.97R
6HR MIN TEMP:  71; 6HR MAX TEMP:  73;

HUNTINGBURG *+ CLOUDY    72  68  88 CALM      29.97R VSB 1/2
6HR MIN TEMP:  72; 6HR MAX TEMP:  73;

WASHINGTON +   MOSUNNY   72  72 100 MISG      29.95S
6HR MIN TEMP:  69; 6HR MAX TEMP:  72;


$$

INZ062-063-066-070>080-084-089>092-301300-
SOUTH CENTRAL AND SOUTHEAST INDIANA

CITY           SKY/WX    TMP DP  RH WIND       PRES   REMARKS
BLOOMINGTON    MOSUNNY   69  67  93 CALM      29.96R FOG
6HR MIN TEMP:  68; 6HR MAX TEMP:  71;

MADISON *+     CLOUDY    70  70 100 SW5       29.99R VSB 1/4
NORTH VERNON + FOG      N/A N/A N/A W5        29.97R VSB 1/4
SEYMOUR +      CLOUDY    72  72 100 CALM      29.96R FOG

$$





USA.gov is the U.S. government's official web portal to all federal, state and local government web resources and services.